QPF
0.00 0.00 0.00 0.00 0.00 0.00 0.00 0.00 0.00 0.00 0.00 0.00 0.00 0.00 0.00 0.01 0.02 0.02 0.03 0.02 0.02 0.02 0.00 0.00 0.00 0.00 0.00 0.00 0.00 0.01 0.00 0.01 0.01 0.01 0.01 0.01 0.00 0.00 0.00 0.00 0.00 0.00 0.03 0.07 0.05 0.04 0.04 0.01 0.00 0.01 0.01 0.00 0.00 0.00
0.00 0.00 0.00 0.00 0.00 0.00 0.00 0.00 0.00 0.00 0.00 0.00 0.00 0.00 0.00 0.01 0.02 0.02 0.03 0.03 0.03 0.02 0.01 0.00 0.00 0.00 0.00 0.00 0.01 0.02 0.00 0.00 0.01 0.01 0.02 0.01 0.01 0.00 0.00 0.00 0.00 0.00 0.02 0.02 0.02 0.02 0.01 0.00 0.00 0.00 0.00 0.00 0.00 0.00
0.00 0.00 0.00 0.00 0.00 0.00 0.00 0.00 0.00 0.00 0.00 0.00 0.00 0.01 0.01 0.01 0.01 0.01 0.03 0.03 0.01 0.02 0.01 0.00 0.00 0.00 0.00 0.00 0.00 0.02 0.01 0.00 0.00 0.00 0.01 0.01 0.01 0.00 0.00 0.00 0.00 0.00 0.00 0.00 0.00 0.00 0.00 0.00 0.00 0.00 0.00 0.00 0.00 0.00
0.00 0.00 0.00 0.00 0.00 0.00 0.00 0.00 0.00 0.00 0.00 0.00 0.00 0.00 0.00 0.00 0.01 0.01 0.03 0.03 0.02 0.02 0.01 0.00 0.00 0.00 0.00 0.00 0.00 0.00 0.00 0.00 0.00 0.01 0.02 0.01 0.01 0.00 0.00 0.00 0.00 0.00 0.00 0.00 0.00 0.00 0.01 0.00 0.00 0.00 0.00 0.00 0.00 0.00
0.00 0.00 0.00 0.00 0.00 0.00 0.00 0.00 0.00 0.00 0.00 0.00 0.00 0.00 0.00 0.01 0.00 0.01 0.03 0.03 0.01 0.02 0.02 0.00 0.00 0.00 0.00 0.00 0.00 0.00 0.00 0.01 0.02 0.02 0.02 0.01 0.00 0.00 0.00 0.00 0.00 0.00 0.00 0.00 0.00 0.01 0.01 0.00 0.00 0.00 0.00 0.01 0.00 0.00
0.00 0.00 0.00 0.00 0.00 0.00 0.00 0.00 0.00 0.00 0.00 0.00 0.00 0.00 0.00 0.00 0.01 0.03 0.02 0.01 0.02 0.04 0.03 0.00 0.00 0.00 0.00 0.00 0.00 0.00 0.00 0.01 0.04 0.02 0.01 0.00 0.00 0.01 0.01 0.00 0.00 0.00 0.00 0.00 0.00 0.00 0.00 0.00 0.00 0.00 0.00 0.00 0.00 0.00
0.00 0.00 0.00 0.00 0.00 0.00 0.00 0.00 0.00 0.00 0.00 0.00 0.00 0.00 0.01 0.01 0.02 0.02 0.01 0.01 0.01 0.02 0.03 0.01 0.00 0.00 0.00 0.00 0.00 0.00 0.00 0.02 0.02 0.02 0.01 0.00 0.00 0.03 0.02 0.00 0.00 0.00 0.00 0.00 0.00 0.00 0.00 0.00 0.01 0.00 0.00 0.00 0.00 0.00
0.00 0.00 0.00 0.00 0.00 0.00 0.00 0.00 0.00 0.00 0.00 0.00 0.00 0.00 0.00 0.01 0.03 0.03 0.01 0.00 0.00 0.02 0.03 0.01 0.00 0.00 0.00 0.00 0.00 0.00 0.01 0.02 0.02 0.01 0.00 0.00 0.01 0.03 0.02 0.00 0.00 0.00 0.00 0.00 0.00 0.00 0.00 0.00 0.00 0.00 0.00 0.00 0.00 0.00
0.00 0.00 0.00 0.00 0.00 0.00 0.00 0.00 0.00 0.00 0.00 0.00 0.00 0.00 0.02 0.03 0.04 0.02 0.00 0.00 0.02 0.05 0.06 0.01 0.00 0.00 0.00 0.00 0.02 0.01 0.01 0.02 0.01 0.02 0.00 0.01 0.01 0.03 0.00 0.00 0.00 0.00 0.00 0.00 0.00 0.00 0.00 0.00 0.00 0.00 0.00 0.00 0.00 0.00
0.00 0.00 0.00 0.00 0.00 0.01 0.00 0.00 0.00 0.00 0.00 0.00 0.00 0.02 0.02 0.02 0.01 0.01 0.03 0.07 0.13 0.06 0.04 0.01 0.00 0.00 0.00 0.01 0.03 0.04 0.03 0.02 0.04 0.01 0.01 0.02 0.00 0.00 0.00 0.00 0.00 0.00 0.00 0.00 0.00 0.00 0.00 0.00 0.00 0.00 0.00 0.00 0.00 0.00
0.00 0.00 0.00 0.00 0.00 0.00 0.00 0.00 0.00 0.00 0.00 0.01 0.01 0.02 0.02 0.01 0.03 0.04 0.06 0.04 0.04 0.04 0.01 0.00 0.00 0.00 0.00 0.00 0.01 0.02 0.02 0.02 0.02 0.01 0.01 0.01 0.00 0.00 0.00 0.00 0.00 0.00 0.00 0.00 0.00 0.00 0.00 0.00 0.00 0.00 0.00 0.00 0.00 0.00
0.00 0.00 0.00 0.00 0.00 0.00 0.01 0.00 0.00 0.01 0.01 0.01 0.01 0.01 0.02 0.03 0.05 0.03 0.02 0.01 0.01 0.01 0.00 0.00 0.00 0.00 0.00 0.00 0.00 0.01 0.01 0.02 0.02 0.03 0.02 0.00 0.00 0.00 0.00 0.00 0.00 0.00 0.00 0.00 0.00 0.00 0.00 0.00 0.00 0.00 0.00 0.00 0.00 0.00
0.00 0.00 0.00 0.00 0.00 0.00 0.01 0.01 0.00 0.01 0.01 0.01 0.01 0.02 0.02 0.01 0.02 0.03 0.02 0.01 0.01 0.00 0.00 0.00 0.00 0.00 0.00 0.00 0.03 0.04 0.05 0.03 0.03 0.04 0.02 0.00 0.00 0.01 0.00 0.00 0.00 0.00 0.00 0.00 0.00 0.00 0.00 0.00 0.00 0.00 0.00 0.00 0.00 0.00
0.00 0.00 0.00 0.00 0.00 0.00 0.01 0.01 0.01 0.02 0.02 0.04 0.02 0.01 0.01 0.02 0.01 0.00 0.00 0.00 0.01 0.03 0.04 0.03 0.04 0.02 0.01 0.03 0.04 0.06 0.03 0.03 0.03 0.01 0.00 0.02 0.03 0.02 0.00 0.00 0.00 0.00 0.00 0.00 0.00 0.00 0.00 0.00 0.00 0.00 0.00 0.00 0.00 0.00
0.00 0.00 0.00 0.00 0.00 0.00 0.00 0.00 0.01 0.05 0.04 0.04 0.02 0.01 0.01 0.00 0.00 0.01 0.00 0.01 0.02 0.02 0.03 0.06 0.07 0.09 0.10 0.16 0.07 0.04 0.04 0.03 0.02 0.02 0.04 0.05 0.01 0.03 0.00 0.00 0.00 0.00 0.00 0.00 0.00 0.00 0.00 0.00 0.00 0.00 0.00 0.00 0.00 0.00
0.00 0.00 0.00 0.00 0.00 0.00 0.00 0.01 0.03 0.07 0.10 0.03 0.04 0.02 0.01 0.01 0.01 0.01 0.01 0.02 0.03 0.05 0.04 0.04 0.04 0.04 0.04 0.08 0.12 0.08 0.02 0.01 0.02 0.04 0.03 0.01 0.00 0.01 0.00 0.00 0.00 0.00 0.00 0.00 0.00 0.00 0.00 0.00 0.00 0.00 0.00 0.00 0.00 0.00
0.00 0.02 0.00 0.00 0.00 0.00 0.00 0.01 0.05 0.08 0.10 0.05 0.02 0.01 0.01 0.02 0.02 0.03 0.03 0.03 0.02 0.01 0.04 0.04 0.07 0.05 0.04 0.03 0.01 0.02 0.03 0.04 0.03 0.01 0.00 0.00 0.00 0.00 0.00 0.00 0.00 0.00 0.00 0.00 0.00 0.00 0.00 0.00 0.00 0.00 0.00 0.00 0.00 0.00
0.00 0.01 0.00 0.00 0.01 0.03 0.03 0.02 0.03 0.06 0.03 0.01 0.01 0.02 0.04 0.03 0.03 0.03 0.02 0.02 0.02 0.02 0.03 0.06 0.06 0.02 0.03 0.02 0.01 0.03 0.04 0.03 0.01 0.00 0.00 0.01 0.01 0.00 0.00 0.00 0.00 0.00 0.00 0.00 0.00 0.00 0.00 0.00 0.00 0.00 0.00 0.00 0.00 0.00
0.01 0.01 0.00 0.00 0.01 0.03 0.03 0.02 0.03 0.04 0.01 0.01 0.01 0.01 0.02 0.02 0.01 0.01 0.00 0.00 0.00 0.01 0.03 0.02 0.03 0.01 0.00 0.01 0.01 0.01 0.01 0.01 0.00 0.00 0.00 0.01 0.00 0.00 0.00 0.00 0.00 0.00 0.00 0.00 0.00 0.00 0.00 0.00 0.00 0.00 0.00 0.00 0.00 0.00
0.00 0.00 0.00 0.00 0.02 0.05 0.04 0.03 0.03 0.02 0.00 0.00 0.01 0.01 0.01 0.01 0.00 0.01 0.00 0.00 0.00 0.00 0.02 0.03 0.01 0.01 0.01 0.01 0.01 0.00 0.00 0.00 0.00 0.00 0.00 0.00 0.00 0.00 0.00 0.00 0.00 0.00 0.00 0.00 0.00 0.00 0.00 0.00 0.00 0.00 0.00 0.00 0.00 0.00
0.01 0.01 0.00 0.01 0.03 0.05 0.05 0.03 0.03 0.02 0.01 0.00 0.00 0.01 0.01 0.00 0.01 0.02 0.01 0.01 0.01 0.01 0.00 0.00 0.00 0.00 0.00 0.00 0.00 0.00 0.00 0.00 0.00 0.00 0.00 0.00 0.00 0.00 0.00 0.00 0.00 0.00 0.00 0.00 0.00 0.00 0.00 0.00 0.00 0.00 0.00 0.00 0.00 0.00
0.02 0.01 0.02 0.03 0.04 0.03 0.02 0.00 0.00 0.01 0.02 0.01 0.01 0.02 0.02 0.02 0.02 0.01 0.01 0.01 0.00 0.00 0.00 0.00 0.00 0.00 0.00 0.00 0.00 0.00 0.00 0.00 0.00 0.00 0.00 0.00 0.00 0.00 0.00 0.00 0.00 0.00 0.00 0.00 0.00 0.00 0.00 0.00 0.00 0.00 0.00 0.00 0.00 0.00
0.01 0.02 0.04 0.03 0.04 0.03 0.01 0.00 0.00 0.00 0.02 0.02 0.01 0.01 0.01 0.01 0.00 0.01 0.01 0.00 0.00 0.00 0.00 0.00 0.00 0.00 0.00 0.00 0.00 0.00 0.00 0.00 0.00 0.00 0.00 0.00 0.00 0.00 0.00 0.01 0.01 0.01 0.02 0.01 0.00 0.00 0.00 0.00 0.00 0.00 0.00 0.00 0.00 0.00
0.01 0.03 0.03 0.03 0.02 0.01 0.01 0.01 0.01 0.02 0.02 0.03 0.02 0.01 0.01 0.01 0.01 0.01 0.01 0.00 0.00 0.00 0.00 0.00 0.00 0.01 0.00 0.00 0.00 0.00 0.00 0.00 0.00 0.00 0.00 0.00 0.00 0.00 0.00 0.01 0.00 0.00 0.00 0.00 0.00 0.00 0.00 0.00 0.00 0.00 0.00 0.00 0.00 0.00
0.02 0.01 0.02 0.01 0.01 0.01 0.01 0.01 0.01 0.01 0.02 0.02 0.02 0.02 0.01 0.01 0.01 0.01 0.01 0.00 0.00 0.01 0.02 0.02 0.01 0.01 0.01 0.00 0.00 0.00 0.00 0.00 0.00 0.00 0.01 0.00 0.00 0.01 0.01 0.00 0.00 0.00 0.00 0.00 0.00 0.00 0.00 0.00 0.00 0.00 0.00 0.00 0.00 0.00
0.01 0.00 0.00 0.00 0.01 0.01 0.02 0.01 0.01 0.01 0.01 0.01 0.01 0.01 0.01 0.02 0.01 0.01 0.00 0.00 0.01 0.02 0.02 0.01 0.00 0.00 0.00 0.00 0.01 0.01 0.01 0.00 0.01 0.02 0.02 0.01 0.01 0.01 0.01 0.00 0.00 0.00 0.00 0.00 0.00 0.00 0.00 0.00 0.00 0.00 0.00 0.00 0.00 0.00
0.01 0.00 0.00 0.00 0.00 0.01 0.02 0.02 0.02 0.02 0.02 0.01 0.01 0.01 0.02 0.02 0.01 0.00 0.00 0.01 0.02 0.01 0.00 0.00 0.00 0.00 0.01 0.01 0.01 0.01 0.01 0.02 0.03 0.04 0.02 0.02 0.01 0.00 0.00 0.00 0.00 0.00 0.00 0.00 0.00 0.00 0.00 0.00 0.00 0.00 0.00 0.00 0.00 0.00
0.00 0.00 0.00 0.01 0.01 0.01 0.01 0.02 0.02 0.02 0.02 0.01 0.02 0.02 0.02 0.01 0.00 0.00 0.02 0.02 0.01 0.00 0.00 0.00 0.00 0.00 0.01 0.01 0.01 0.02 0.03 0.02 0.01 0.00 0.00 0.00 0.00 0.00 0.00 0.00 0.00 0.00 0.00 0.00 0.00 0.00 0.00 0.00 0.00 0.00 0.00 0.00 0.00 0.00
0.00 0.00 0.00 0.00 0.00 0.01 0.02 0.03 0.02 0.01 0.01 0.02 0.02 0.02 0.01 0.01 0.01 0.01 0.00 0.00 0.00 0.00 0.00 0.00 0.00 0.01 0.02 0.01 0.00 0.00 0.00 0.00 0.00 0.00 0.00 0.00 0.00 0.00 0.00 0.00 0.00 0.00 0.00 0.00 0.00 0.00 0.00 0.00 0.00 0.00 0.00 0.00 0.00 0.00
0.00 0.00 0.01 0.01 0.01 0.00 0.00 0.01 0.01 0.01 0.01 0.01 0.02 0.01 0.01 0.01 0.01 0.01 0.01 0.00 0.00 0.00 0.00 0.00 0.01 0.02 0.02 0.01 0.00 0.00 0.00 0.00 0.00 0.01 0.01 0.01 0.01 0.00 0.00 0.00 0.00 0.00 0.00 0.00 0.00 0.00 0.00 0.00 0.00 0.00 0.00 0.00 0.00 0.00
0.00 0.00 0.00 0.01 0.00 0.00 0.01 0.01 0.02 0.01 0.01 0.01 0.01 0.01 0.01 0.00 0.00 0.00 0.00 0.00 0.00 0.00 0.00 0.00 0.00 0.00 0.01 0.01 0.00 0.00 0.01 0.00 0.00 0.00 0.00 0.00 0.00 0.00 0.00 0.00 0.00 0.00 0.00 0.00 0.00 0.00 0.00 0.00 0.00 0.00 0.00 0.00 0.00 0.00
0.00 0.00 0.00 0.00 0.00 0.00 0.01 0.01 0.01 0.01 0.01 0.01 0.01 0.01 0.00 0.00 0.00 0.00 0.00 0.00 0.00 0.00 0.00 0.00 0.00 0.01 0.01 0.01 0.00 0.00 0.00 0.00 0.00 0.00 0.00 0.00 0.00 0.00 0.00 0.00 0.00 0.00 0.00 0.00 0.00 0.00 0.00 0.00 0.00 0.00 0.00 0.00 0.00 0.00
0.00 0.00 0.00 0.01 0.03 0.03 0.02 0.01 0.01 0.01 0.01 0.01 0.01 0.01 0.01 0.01 0.00 0.00 0.00 0.00 0.00 0.00 0.00 0.01 0.01 0.01 0.00 0.00 0.00 0.00 0.00 0.00 0.00 0.00 0.00 0.00 0.00 0.00 0.00 0.00 0.00 0.00 0.00 0.00 0.00 0.00 0.00 0.00 0.00 0.00 0.00 0.00 0.00 0.00
MSLP
1021.05 1021.05 1021.23 1021.51 1021.76 1021.91 1022.26 1022.52 1022.92 1023.04 1023.33 1023.59 1023.82 1024.00 1024.32 1024.54 1025.00 1025.51 1025.28 1025.67 1025.57 1025.47 1024.37 1023.84 1023.22 1022.88 1022.90 1023.25 1023.73 1023.92 1024.02 1024.28 1024.72 1024.19 1023.04 1021.60 1020.83 1019.55 1018.62 1017.61 1016.99 1016.79 1016.39 1016.21 1016.13 1015.07 1013.47 1013.00 1012.28 1012.11 1011.97 1011.52 1011.71 1011.60
1021.07 1021.07 1021.32 1021.44 1021.67 1021.92 1022.16 1022.41 1022.66 1022.88 1023.22 1023.47 1023.57 1023.80 1024.18 1024.47 1024.76 1025.35 1025.54 1025.15 1025.54 1025.90 1025.04 1024.19 1023.96 1023.33 1023.09 1022.65 1023.39 1023.83 1023.50 1023.24 1023.74 1023.56 1022.83 1022.12 1021.11 1020.12 1018.70 1017.23 1016.34 1016.20 1015.82 1015.82 1015.86 1014.15 1013.35 1012.81 1012.08 1011.76 1011.70 1011.57 1011.61 1011.32
1020.94 1021.20 1021.30 1021.52 1021.65 1021.79 1022.24 1022.32 1022.26 1022.71 1023.15 1023.28 1023.51 1023.42 1023.99 1024.32 1024.75 1025.30 1025.34 1025.51 1026.10 1025.99 1025.09 1023.90 1022.81 1022.59 1022.67 1022.76 1023.15 1023.53 1023.06 1023.26 1023.18 1022.90 1023.06 1022.45 1021.36 1020.06 1018.53 1017.04 1016.04 1015.21 1014.83 1014.76 1014.95 1013.67 1012.51 1012.07 1011.90 1011.63 1011.72 1011.53 1011.67 1011.30
1021.08 1021.35 1021.52 1021.50 1021.71 1021.95 1022.23 1022.37 1022.55 1022.79 1023.09 1023.32 1023.57 1023.76 1024.19 1024.44 1024.68 1025.07 1025.13 1025.15 1025.32 1025.32 1024.26 1021.78 1021.41 1021.39 1021.47 1021.90 1022.09 1022.54 1022.67 1022.72 1022.98 1022.99 1023.18 1022.63 1021.53 1019.92 1018.57 1017.28 1016.19 1015.34 1014.63 1014.06 1013.50 1012.84 1012.33 1011.93 1011.80 1011.63 1011.64 1011.97 1012.03 1011.58
1021.31 1021.51 1021.71 1021.86 1022.05 1022.21 1022.15 1022.50 1022.64 1022.81 1023.19 1023.43 1023.66 1023.76 1024.01 1024.14 1024.54 1024.86 1024.93 1024.99 1025.07 1025.24 1023.78 1022.32 1021.53 1020.91 1020.83 1021.32 1021.74 1022.18 1022.74 1023.16 1023.39 1023.44 1022.88 1022.03 1021.08 1020.10 1018.77 1017.48 1015.35 1015.07 1013.97 1013.45 1012.44 1011.85 1012.17 1011.44 1011.52 1011.97 1012.15 1012.23 1012.35 1012.22
1021.43 1021.72 1021.97 1022.09 1022.39 1022.40 1022.59 1022.79 1022.89 1023.06 1023.23 1023.42 1023.70 1023.82 1023.83 1024.14 1024.54 1024.76 1024.98 1023.81 1024.41 1024.86 1024.89 1022.74 1020.54 1020.32 1020.48 1020.46 1021.09 1021.84 1022.14 1023.06 1023.34 1023.01 1022.39 1021.29 1020.65 1020.18 1018.30 1015.77 1014.26 1013.39 1012.71 1012.20 1011.92 1011.89 1011.81 1011.79 1011.75 1012.05 1012.52 1012.67 1012.75 1012.58
1021.69 1021.87 1022.00 1022.28 1022.50 1022.55 1022.80 1023.01 1023.11 1023.25 1023.37 1023.65 1023.73 1023.75 1023.81 1024.00 1024.16 1024.21 1024.15 1024.40 1023.98 1025.12 1025.14 1022.89 1020.39 1020.00 1020.54 1020.95 1021.54 1021.94 1022.52 1022.95 1023.05 1022.69 1021.72 1020.85 1019.81 1019.97 1017.97 1015.25 1013.96 1013.17 1012.17 1011.35 1011.33 1011.49 1011.43 1011.38 1011.83 1012.62 1012.85 1013.04 1012.90 1012.59
1021.65 1021.92 1022.13 1022.30 1022.48 1022.75 1022.89 1023.02 1023.19 1023.35 1023.50 1023.57 1023.64 1023.70 1023.81 1023.95 1024.27 1024.30 1023.78 1024.33 1024.57 1024.70 1024.31 1022.67 1020.46 1019.99 1020.32 1020.81 1021.68 1022.57 1022.61 1022.81 1022.54 1021.83 1020.41 1019.33 1018.59 1018.28 1016.04 1013.02 1012.50 1012.00 1011.38 1010.95 1010.84 1011.01 1011.24 1012.26 1012.69 1012.87 1012.93 1012.80 1012.67 1012.57
1021.79 1022.00 1022.23 1022.39 1022.53 1022.68 1022.88 1023.06 1023.25 1023.36 1023.48 1023.51 1023.57 1023.55 1023.56 1023.80 1023.69 1023.05 1023.31 1024.18 1024.04 1024.36 1023.11 1021.86 1020.30 1018.96 1019.68 1019.71 1020.68 1021.91 1022.04 1021.53 1020.77 1020.05 1019.07 1018.48 1016.91 1015.33 1012.50 1011.93 1011.25 1010.88 1010.45 1010.09 1010.26 1010.70 1011.46 1012.58 1012.76 1012.64 1012.79 1013.02 1013.39 1013.53
1021.74 1021.94 1022.18 1022.31 1022.46 1022.52 1022.79 1022.97 1023.12 1023.28 1023.41 1023.47 1023.52 1023.22 1023.07 1022.72 1023.21 1023.38 1024.17 1023.99 1023.85 1023.20 1022.73 1020.80 1019.69 1018.81 1018.88 1018.60 1019.37 1020.02 1020.20 1019.26 1017.82 1016.83 1016.72 1016.22 1014.02 1012.81 1011.55 1010.96 1010.49 1010.13 1009.94 1009.79 1010.15 1010.71 1011.68 1012.37 1012.46 1013.07 1013.42 1013.71 1014.12 1014.47
1021.81 1021.95 1022.07 1022.18 1022.32 1022.48 1022.70 1022.96 1023.11 1023.23 1023.32 1023.07 1022.81 1022.33 1022.39 1022.88 1022.88 1022.54 1022.35 1022.11 1021.22 1020.71 1019.95 1018.89 1018.27 1018.06 1017.74 1017.97 1018.21 1018.56 1017.72 1017.03 1015.76 1014.31 1014.56 1012.85 1011.05 1010.08 1009.90 1010.07 1009.90 1009.56 1009.42 1009.60 1010.64 1011.17 1011.84 1012.57 1013.10 1013.58 1013.90 1014.07 1014.39 1014.52
1021.82 1021.97 1022.06 1022.13 1022.13 1022.23 1022.48 1022.81 1022.98 1022.94 1022.43 1022.84 1022.63 1022.65 1022.60 1022.63 1022.31 1021.43 1020.45 1019.57 1018.62 1017.64 1016.74 1016.78 1016.82 1017.02 1017.03 1017.68 1018.01 1017.66 1016.95 1016.12 1014.16 1013.34 1013.24 1011.11 1009.89 1009.03 1009.51 1010.34 1010.19 1009.94 1009.96 1010.52 1011.33 1011.89 1012.67 1013.28 1013.75 1014.08 1014.27 1014.35 1014.24 1014.27
1021.80 1021.91 1022.02 1022.09 1022.12 1022.19 1022.37 1022.60 1022.78 1023.03 1023.07 1022.77 1022.64 1022.17 1021.70 1020.96 1020.27 1018.87 1017.77 1016.82 1016.33 1015.84 1015.82 1016.31 1016.84 1017.07 1017.53 1017.95 1018.01 1017.11 1016.02 1014.29 1012.91 1012.50 1010.89 1009.72 1009.04 1009.04 1009.66 1010.48 1010.46 1010.61 1011.01 1011.41 1011.92 1012.50 1013.02 1013.47 1013.89 1014.21 1014.34 1014.50 1014.51 1014.37
1021.81 1021.94 1022.02 1022.04 1022.03 1022.08 1022.31 1022.60 1022.84 1023.05 1022.99 1022.36 1021.65 1021.01 1020.01 1018.64 1017.55 1016.50 1016.18 1015.35 1015.28 1015.53 1015.65 1015.97 1016.29 1016.94 1017.06 1017.25 1016.47 1015.56 1014.13 1012.97 1011.77 1010.58 1009.58 1008.97 1008.89 1009.22 1009.92 1010.47 1010.73 1011.13 1011.65 1012.15 1012.48 1012.88 1013.37 1013.86 1014.09 1014.28 1014.49 1014.70 1014.64 1014.45
1021.81 1021.94 1021.95 1021.95 1022.06 1022.14 1022.30 1022.53 1022.87 1022.86 1022.51 1021.75 1020.70 1019.19 1017.80 1017.03 1016.40 1016.35 1016.22 1015.85 1015.63 1015.77 1015.85 1016.10 1016.51 1016.34 1015.80 1015.45 1014.61 1013.73 1012.62 1011.48 1010.32 1009.52 1009.93 1010.29 1010.40 1010.32 1010.59 1011.09 1011.60 1012.17 1012.58 1013.09 1013.48 1014.12 1014.48 1014.61 1014.71 1014.74 1014.80 1014.76 1014.53 1014.45
1021.78 1021.89 1021.59 1021.85 1022.04 1022.24 1022.40 1022.31 1022.45 1022.88 1022.19 1020.99 1019.76 1018.23 1017.31 1016.92 1016.48 1016.27 1016.15 1016.07 1016.06 1016.68 1016.58 1016.20 1015.79 1015.31 1014.35 1013.66 1013.13 1012.13 1011.32 1010.24 1009.75 1009.67 1010.15 1010.41 1010.59 1010.84 1011.15 1011.62 1011.98 1012.43 1013.09 1013.62 1013.72 1014.27 1014.57 1014.74 1014.79 1014.72 1014.67 1014.57 1014.36 1014.17
1021.80 1021.13 1021.78 1021.96 1022.13 1022.25 1022.34 1022.04 1022.11 1021.95 1020.71 1019.22 1018.14 1017.73 1017.38 1017.03 1016.50 1016.27 1016.42 1016.52 1016.74 1016.63 1016.55 1016.23 1015.44 1014.54 1013.83 1012.11 1011.64 1011.54 1011.66 1011.67 1011.75 1011.66 1011.48 1011.45 1011.41 1011.40 1011.43 1011.62 1012.11 1012.69 1013.28 1013.80 1013.90 1014.23 1014.41 1014.53 1014.62 1014.45 1014.20 1013.98 1013.88 1013.79
1021.04 1021.18 1021.66 1021.88 1021.88 1021.72 1021.59 1021.69 1021.19 1020.45 1018.95 1017.94 1017.31 1016.75 1016.66 1016.60 1016.46 1016.23 1016.17 1016.29 1016.60 1016.37 1016.42 1016.55 1015.93 1014.36 1013.52 1012.74 1011.68 1011.58 1012.37 1012.87 1013.04 1012.28 1011.79 1011.66 1011.63 1011.80 1011.80 1011.64 1011.84 1012.33 1012.79 1013.34 1013.84 1014.12 1014.20 1014.20 1013.95 1013.51 1013.33 1013.43 1013.46 1013.25
1021.04 1021.24 1021.53 1021.76 1021.88 1021.73 1021.13 1020.49 1020.21 1018.93 1017.29 1016.75 1016.27 1016.18 1016.12 1015.86 1016.12 1016.34 1016.10 1016.10 1016.15 1016.20 1016.60 1015.98 1015.24 1013.98 1012.93 1012.58 1012.44 1012.14 1012.05 1012.39 1012.73 1012.54 1012.33 1011.89 1011.88 1011.92 1011.96 1011.87 1012.03 1012.20 1012.61 1013.00 1013.31 1013.32 1013.18 1013.40 1013.45 1013.44 1013.32 1013.25 1013.08 1012.88
1021.20 1021.32 1021.34 1021.48 1021.68 1021.59 1020.77 1019.31 1018.76 1017.84 1016.49 1015.94 1015.74 1015.68 1015.63 1015.61 1015.68 1015.55 1015.56 1015.52 1015.61 1015.52 1015.35 1014.83 1014.15 1013.69 1013.41 1013.14 1013.04 1012.83 1012.59 1012.54 1012.48 1012.07 1011.78 1011.61 1011.43 1011.31 1011.21 1011.37 1011.57 1011.72 1011.99 1012.47 1012.80 1013.06 1013.10 1012.99 1012.87 1012.82 1012.83 1012.96 1013.21 1012.94
1020.80 1020.32 1020.77 1020.88 1020.92 1021.07 1019.85 1018.39 1017.69 1016.96 1016.34 1015.82 1015.56 1015.26 1015.11 1015.10 1014.88 1014.85 1014.75 1014.77 1014.68 1014.39 1014.19 1014.06 1013.81 1013.50 1013.40 1013.13 1012.91 1012.76 1012.32 1012.29 1011.88 1011.67 1011.01 1010.72 1010.81 1010.81 1010.77 1010.77 1010.84 1011.22 1011.50 1011.77 1012.03 1012.26 1012.75 1012.77 1012.73 1012.89 1013.12 1013.16 1013.12 1012.98
1020.01 1020.24 1020.21 1020.12 1020.26 1019.79 1018.96 1017.83 1017.18 1016.64 1016.44 1015.90 1015.79 1015.45 1014.97 1014.63 1014.37 1014.39 1014.42 1014.15 1013.80 1013.63 1013.58 1013.50 1013.40 1013.27 1012.93 1012.66 1012.36 1012.22 1011.93 1011.72 1011.45 1011.18 1010.97 1010.82 1010.56 1010.53 1010.46 1010.42 1010.58 1010.94 1011.37 1011.70 1011.94 1012.14 1012.35 1012.47 1012.74 1013.14 1013.33 1013.18 1013.02 1012.71
1020.11 1020.20 1020.01 1019.74 1019.73 1018.94 1017.74 1017.01 1016.56 1016.37 1016.15 1015.97 1015.50 1014.96 1014.60 1014.22 1014.01 1014.09 1013.80 1013.28 1013.01 1012.99 1013.10 1013.00 1012.91 1012.91 1012.79 1012.43 1012.13 1011.81 1011.51 1011.24 1010.80 1010.53 1010.43 1010.27 1010.14 1010.11 1010.28 1010.46 1010.73 1011.03 1011.33 1011.68 1012.07 1012.36 1012.57 1013.10 1013.27 1013.48 1013.46 1013.28 1012.91 1012.54
1019.90 1019.80 1019.37 1018.90 1018.48 1017.62 1017.06 1016.52 1016.25 1015.93 1015.47 1015.25 1015.04 1014.49 1013.98 1013.70 1013.63 1013.34 1012.82 1012.56 1012.53 1012.43 1012.37 1012.42 1012.66 1012.58 1012.30 1011.66 1011.03 1010.58 1010.44 1010.42 1010.12 1009.87 1009.93 1009.87 1009.78 1010.11 1010.60 1010.75 1011.10 1011.51 1011.80 1011.99 1012.33 1012.65 1012.98 1013.29 1013.55 1013.40 1013.30 1013.15 1012.87 1012.57
1019.47 1019.20 1018.82 1017.81 1017.28 1016.66 1016.26 1016.04 1015.88 1015.67 1015.17 1014.87 1014.48 1014.13 1013.78 1013.63 1013.15 1012.74 1012.30 1012.22 1012.12 1012.05 1012.15 1012.60 1012.69 1012.50 1011.95 1011.37 1010.64 1010.09 1009.92 1009.81 1009.69 1009.67 1009.54 1009.86 1010.22 1010.42 1010.81 1011.10 1011.40 1011.78 1012.38 1012.63 1012.80 1013.06 1013.22 1013.46 1013.53 1013.40 1013.30 1013.15 1012.87 1012.62
1017.95 1017.36 1017.19 1016.20 1015.77 1015.71 1015.33 1014.97 1014.89 1014.78 1014.69 1014.40 1014.03 1013.77 1013.48 1013.21 1012.73 1012.09 1011.79 1011.66 1011.51 1011.81 1012.27 1012.51 1012.57 1012.22 1011.74 1011.50 1010.96 1010.60 1010.46 1010.34 1010.34 1010.16 1009.99 1010.19 1010.50 1010.61 1010.73 1011.09 1011.46 1011.88 1012.57 1013.01 1013.27 1013.31 1013.32 1013.45 1013.53 1013.53 1013.35 1013.09 1012.86 1012.64
1016.23 1015.49 1015.15 1015.02 1014.95 1014.68 1014.41 1014.19 1014.09 1014.04 1013.82 1013.58 1013.34 1013.16 1013.02 1012.57 1011.75 1011.47 1011.27 1010.96 1011.22 1011.74 1012.07 1012.26 1012.38 1012.24 1011.81 1011.41 1011.21 1011.21 1011.24 1011.10 1010.99 1010.71 1010.69 1010.97 1011.22 1011.34 1011.25 1011.33 1011.58 1012.19 1012.86 1013.39 1013.66 1013.75 1013.74 1013.78 1013.72 1013.60 1013.42 1013.15 1012.82 1012.56
1014.57 1014.04 1013.94 1014.16 1014.02 1013.93 1013.77 1013.78 1013.57 1013.43 1013.26 1013.09 1012.92 1012.54 1012.28 1011.76 1011.20 1010.93 1010.83 1011.09 1011.45 1011.71 1011.75 1011.81 1011.83 1012.03 1012.00 1011.72 1011.70 1011.83 1011.88 1011.79 1011.78 1011.65 1011.71 1011.91 1012.10 1012.33 1012.51 1012.67 1013.16 1013.43 1013.56 1013.94 1014.06 1014.16 1014.19 1014.12 1014.00 1013.85 1013.55 1013.18 1012.93 1012.63
1013.13 1012.99 1013.20 1013.00 1013.25 1013.20 1013.07 1013.02 1012.82 1012.59 1012.53 1012.23 1011.89 1011.64 1011.19 1010.86 1010.90 1010.84 1010.80 1010.73 1011.12 1011.32 1011.33 1011.19 1011.07 1011.61 1011.84 1011.93 1011.87 1011.79 1011.72 1011.68 1011.62 1011.51 1011.48 1011.36 1011.77 1012.19 1012.67 1012.99 1013.34 1013.65 1013.92 1014.07 1014.47 1014.54 1014.42 1014.42 1014.30 1014.10 1013.89 1013.56 1013.05 1012.38
1011.82 1012.21 1012.17 1012.26 1012.37 1012.18 1011.95 1012.13 1011.77 1011.68 1011.67 1011.46 1011.30 1010.99 1010.59 1010.33 1010.28 1010.48 1010.58 1010.67 1010.77 1010.68 1010.64 1010.67 1010.68 1010.96 1011.14 1011.27 1011.19 1011.57 1011.84 1011.92 1012.01 1011.88 1011.58 1011.61 1011.78 1012.36 1012.83 1013.28 1013.58 1013.96 1014.17 1014.13 1014.08 1014.11 1014.15 1014.12 1013.88 1013.53 1013.39 1013.07 1012.72 1012.44
1011.13 1011.13 1011.20 1011.33 1011.18 1010.80 1010.75 1010.96 1011.15 1011.26 1011.30 1011.10 1010.93 1010.73 1010.24 1009.92 1009.68 1009.89 1009.95 1009.94 1010.09 1010.24 1010.27 1010.14 1010.30 1010.63 1010.70 1010.75 1010.87 1011.10 1011.48 1012.07 1012.68 1012.78 1012.62 1012.63 1012.86 1013.14 1013.57 1014.02 1014.26 1014.36 1014.36 1014.35 1014.31 1014.24 1014.24 1014.11 1013.78 1013.60 1013.49 1013.34 1013.12 1012.86
1010.41 1010.35 1010.50 1010.36 1010.02 1009.98 1010.28 1010.48 1010.28 1010.14 1010.02 1009.94 1009.68 1009.65 1009.55 1009.28 1008.68 1008.66 1009.09 1009.47 1009.68 1009.65 1009.59 1009.80 1009.88 1009.94 1010.46 1010.74 1011.12 1011.67 1011.90 1012.46 1012.98 1013.29 1013.28 1013.43 1013.73 1014.21 1014.48 1014.67 1014.78 1014.71 1014.65 1014.64 1014.57 1014.52 1014.50 1014.44 1014.23 1014.12 1013.93 1013.73 1013.63 1013.30
1009.99 1009.97 1010.08 1009.99 1009.83 1009.51 1009.44 1009.84 1009.40 1009.20 1009.03 1008.77 1008.48 1008.48 1008.30 1008.22 1007.74 1008.10 1008.84 1009.33 1009.35 1009.35 1009.44 1009.56 1009.97 1010.24 1010.74 1011.33 1011.75 1012.44 1012.82 1013.44 1014.06 1014.43 1014.65 1014.76 1014.86 1014.87 1014.93 1015.04 1015.08 1015.11 1015.03 1014.89 1014.89 1014.90 1014.89 1014.89 1014.77 1014.78 1014.51 1014.45 1014.23 1013.94
Thickness
5401 5405 5408 5409 5410 5413 5414 5415 5414 5416 5415 5415 5414 5413 5411 5410 5406 5403 5404 5399 5400 5398 5408 5410 5413 5411 5408 5399 5385 5387 5383 5374 5362 5364 5378 5391 5387 5397 5396 5405 5403 5397 5399 5394 5390 5388 5400 5421 5424 5413 5419 5424 5421 5422
5392 5396 5398 5401 5402 5404 5405 5406 5406 5407 5406 5406 5407 5405 5402 5399 5398 5394 5391 5393 5391 5386 5395 5398 5396 5398 5397 5400 5387 5380 5382 5384 5370 5366 5375 5377 5376 5380 5388 5390 5410 5393 5402 5393 5390 5407 5415 5416 5418 5420 5419 5418 5417 5420
5385 5386 5390 5391 5393 5396 5394 5397 5400 5399 5397 5398 5396 5398 5392 5390 5387 5385 5384 5382 5376 5375 5382 5389 5395 5396 5391 5387 5382 5370 5377 5374 5371 5374 5365 5365 5363 5380 5380 5394 5400 5408 5410 5397 5390 5408 5417 5416 5414 5414 5412 5413 5411 5415
5375 5376 5378 5382 5383 5384 5385 5387 5388 5388 5387 5386 5385 5385 5382 5380 5378 5375 5375 5375 5374 5373 5378 5403 5399 5398 5393 5386 5381 5376 5373 5371 5366 5363 5351 5352 5355 5377 5379 5388 5389 5395 5399 5398 5398 5407 5409 5411 5409 5408 5407 5402 5399 5405
5363 5365 5367 5369 5371 5372 5376 5375 5376 5377 5375 5375 5374 5375 5373 5372 5369 5366 5366 5366 5364 5363 5375 5383 5390 5392 5390 5382 5375 5370 5362 5355 5350 5344 5346 5348 5360 5362 5371 5377 5386 5386 5392 5390 5397 5411 5398 5411 5408 5401 5395 5392 5389 5389
5352 5354 5355 5357 5357 5361 5362 5362 5364 5364 5364 5364 5363 5364 5365 5363 5359 5357 5353 5365 5358 5353 5351 5370 5392 5386 5382 5381 5373 5364 5360 5347 5341 5341 5344 5354 5357 5350 5359 5381 5396 5398 5401 5404 5404 5405 5403 5403 5402 5397 5386 5380 5378 5378
5339 5342 5345 5345 5346 5349 5349 5349 5350 5351 5352 5351 5352 5353 5354 5353 5351 5351 5357 5350 5350 5342 5340 5359 5382 5382 5371 5366 5356 5350 5345 5336 5336 5334 5339 5346 5355 5342 5352 5369 5380 5388 5395 5404 5405 5402 5400 5402 5394 5383 5378 5373 5371 5374
5328 5329 5331 5333 5335 5335 5337 5338 5338 5339 5339 5340 5342 5342 5342 5341 5339 5339 5342 5338 5335 5335 5337 5346 5369 5369 5364 5354 5341 5333 5331 5328 5329 5332 5347 5351 5357 5347 5355 5390 5391 5391 5396 5400 5403 5401 5398 5382 5378 5375 5374 5374 5373 5372
5315 5317 5318 5320 5322 5323 5324 5325 5326 5327 5328 5329 5329 5330 5331 5330 5331 5336 5334 5327 5327 5326 5334 5344 5358 5366 5360 5358 5344 5328 5325 5326 5337 5334 5343 5344 5358 5360 5391 5394 5397 5396 5399 5403 5402 5398 5389 5373 5373 5375 5372 5367 5359 5356
5303 5305 5306 5308 5310 5312 5313 5314 5315 5315 5316 5316 5318 5322 5320 5327 5322 5321 5315 5314 5313 5319 5321 5341 5354 5353 5355 5357 5345 5340 5331 5342 5348 5361 5358 5346 5373 5383 5396 5397 5398 5398 5401 5402 5394 5387 5377 5368 5371 5363 5357 5352 5345 5339
5290 5292 5295 5297 5299 5300 5301 5301 5303 5303 5304 5308 5311 5318 5316 5313 5312 5315 5316 5318 5330 5327 5337 5349 5350 5344 5353 5345 5344 5339 5345 5352 5350 5374 5359 5376 5396 5402 5404 5394 5394 5396 5398 5397 5383 5379 5371 5363 5355 5349 5344 5341 5335 5332
5278 5280 5282 5285 5287 5289 5289 5288 5289 5292 5299 5298 5301 5299 5300 5300 5302 5309 5317 5330 5339 5344 5359 5352 5346 5345 5345 5340 5332 5335 5337 5343 5354 5371 5353 5375 5399 5405 5398 5380 5382 5386 5385 5379 5370 5364 5355 5346 5340 5335 5332 5329 5329 5327
5265 5267 5270 5272 5275 5276 5276 5276 5276 5277 5278 5282 5286 5289 5294 5301 5298 5312 5323 5340 5341 5350 5350 5340 5329 5330 5325 5322 5315 5325 5322 5342 5368 5350 5368 5390 5400 5395 5385 5372 5373 5373 5368 5364 5358 5351 5344 5338 5332 5327 5323 5320 5318 5317
5252 5254 5256 5258 5261 5262 5262 5262 5261 5261 5264 5270 5276 5277 5290 5296 5313 5330 5334 5344 5342 5337 5335 5329 5325 5315 5315 5309 5320 5318 5340 5352 5350 5361 5378 5393 5389 5382 5371 5366 5365 5361 5356 5351 5346 5341 5334 5327 5323 5319 5312 5307 5305 5306
5240 5241 5243 5245 5246 5246 5246 5246 5245 5246 5251 5259 5268 5276 5294 5308 5315 5313 5314 5319 5322 5319 5319 5315 5307 5309 5314 5313 5327 5338 5342 5344 5362 5373 5365 5353 5356 5359 5354 5349 5344 5333 5329 5330 5328 5315 5309 5308 5306 5303 5300 5298 5299 5296
5228 5229 5232 5232 5231 5231 5230 5232 5231 5229 5236 5249 5258 5273 5287 5289 5293 5296 5298 5297 5299 5289 5293 5300 5303 5308 5318 5324 5327 5333 5345 5361 5372 5367 5356 5353 5350 5347 5341 5335 5332 5329 5323 5317 5318 5309 5304 5301 5299 5296 5293 5291 5290 5289
5216 5222 5218 5217 5216 5215 5216 5219 5217 5220 5233 5246 5258 5266 5268 5270 5276 5280 5275 5275 5275 5277 5279 5285 5285 5299 5309 5329 5337 5345 5338 5336 5325 5324 5329 5329 5329 5329 5327 5326 5320 5317 5312 5307 5307 5301 5298 5295 5291 5291 5290 5289 5285 5283
5210 5208 5206 5204 5204 5205 5207 5207 5211 5216 5230 5248 5249 5260 5258 5259 5260 5264 5266 5265 5260 5264 5267 5263 5270 5284 5291 5294 5319 5324 5306 5299 5298 5309 5317 5319 5316 5312 5314 5317 5315 5312 5307 5299 5293 5289 5288 5287 5290 5294 5291 5285 5280 5278
5197 5195 5194 5191 5190 5192 5197 5205 5206 5213 5237 5244 5250 5251 5251 5254 5248 5247 5251 5253 5254 5255 5248 5255 5255 5272 5292 5298 5297 5303 5304 5296 5289 5293 5297 5301 5300 5298 5296 5300 5299 5297 5292 5289 5287 5290 5292 5287 5284 5282 5279 5276 5275 5273
5185 5183 5182 5181 5180 5179 5184 5204 5208 5213 5229 5237 5240 5241 5241 5239 5241 5243 5243 5245 5244 5245 5243 5246 5257 5266 5270 5272 5271 5274 5278 5278 5276 5280 5288 5292 5293 5292 5293 5293 5291 5291 5289 5283 5281 5277 5278 5278 5278 5276 5274 5268 5261 5261
5176 5179 5176 5174 5174 5173 5185 5198 5202 5210 5217 5223 5229 5231 5229 5232 5235 5236 5236 5239 5237 5241 5239 5245 5248 5253 5252 5254 5259 5260 5266 5266 5270 5272 5280 5282 5284 5284 5285 5287 5287 5283 5281 5279 5277 5275 5265 5267 5267 5263 5258 5254 5251 5250
5171 5169 5169 5168 5168 5172 5179 5192 5197 5204 5204 5210 5211 5213 5214 5220 5224 5226 5228 5225 5228 5234 5235 5237 5239 5240 5244 5248 5251 5251 5255 5256 5258 5261 5262 5265 5269 5271 5273 5276 5275 5270 5267 5265 5265 5263 5261 5259 5255 5249 5244 5243 5242 5243
5161 5160 5161 5163 5160 5165 5179 5189 5190 5193 5187 5193 5201 5202 5206 5212 5218 5220 5212 5225 5228 5230 5229 5229 5230 5230 5232 5236 5238 5242 5244 5245 5250 5254 5256 5259 5262 5263 5262 5261 5259 5257 5256 5254 5252 5249 5247 5239 5236 5232 5230 5230 5232 5235
5153 5153 5154 5159 5164 5168 5177 5178 5184 5185 5187 5188 5189 5191 5201 5205 5209 5207 5209 5218 5222 5223 5223 5221 5219 5221 5225 5231 5238 5241 5241 5241 5246 5250 5249 5251 5253 5250 5246 5245 5244 5241 5240 5240 5237 5234 5231 5226 5222 5222 5221 5220 5222 5225
5145 5150 5151 5158 5167 5169 5168 5169 5171 5175 5176 5182 5184 5184 5191 5196 5195 5197 5203 5209 5211 5213 5210 5205 5205 5208 5215 5222 5230 5235 5235 5237 5238 5240 5243 5239 5237 5236 5233 5232 5231 5229 5223 5222 5221 5218 5216 5213 5211 5211 5211 5211 5214 5215
5143 5155 5156 5167 5170 5167 5170 5168 5170 5170 5171 5172 5179 5187 5190 5186 5181 5182 5198 5203 5206 5201 5196 5193 5194 5198 5205 5206 5212 5217 5219 5220 5220 5223 5227 5225 5223 5224 5225 5222 5221 5218 5210 5208 5205 5205 5205 5203 5202 5200 5201 5204 5206 5208
5146 5159 5169 5174 5171 5173 5170 5173 5174 5169 5166 5168 5175 5176 5176 5166 5176 5190 5197 5201 5198 5192 5189 5187 5186 5188 5194 5198 5201 5201 5202 5204 5205 5210 5210 5208 5207 5207 5210 5211 5210 5206 5199 5194 5192 5191 5192 5191 5191 5192 5193 5197 5201 5203
5157 5168 5164 5165 5164 5167 5159 5159 5160 5158 5162 5167 5168 5164 5165 5169 5179 5189 5189 5187 5184 5183 5183 5183 5184 5182 5183 5186 5188 5188 5188 5191 5192 5194 5194 5193 5192 5191 5190 5189 5186 5184 5184 5181 5180 5179 5179 5181 5182 5183 5186 5190 5192 5196
5161 5169 5164 5156 5154 5154 5154 5152 5154 5161 5163 5163 5162 5163 5171 5178 5178 5177 5179 5180 5178 5176 5177 5179 5183 5178 5177 5178 5181 5184 5187 5189 5191 5194 5195 5199 5194 5189 5183 5180 5178 5175 5173 5172 5169 5169 5171 5171 5173 5175 5177 5180 5185 5192
5163 5163 5154 5152 5146 5146 5155 5152 5154 5157 5156 5157 5159 5161 5166 5170 5172 5171 5171 5171 5172 5174 5176 5177 5180 5179 5179 5180 5184 5181 5179 5180 5181 5184 5190 5190 5187 5178 5174 5170 5168 5165 5164 5166 5167 5167 5167 5168 5171 5175 5177 5180 5183 5185
5157 5156 5153 5151 5149 5157 5156 5152 5147 5144 5143 5145 5148 5147 5154 5162 5166 5166 5167 5169 5169 5169 5171 5175 5176 5175 5178 5180 5181 5181 5179 5173 5166 5165 5166 5166 5165 5163 5160 5157 5156 5156 5157 5158 5159 5161 5162 5163 5168 5170 5171 5172 5174 5176
5152 5152 5150 5148 5155 5156 5150 5139 5142 5142 5144 5143 5148 5149 5151 5154 5161 5169 5165 5162 5162 5166 5170 5171 5173 5176 5174 5174 5171 5166 5165 5161 5156 5153 5153 5152 5151 5147 5146 5145 5146 5148 5149 5150 5152 5154 5155 5156 5159 5160 5162 5164 5164 5167
5148 5151 5149 5148 5147 5148 5147 5136 5139 5139 5142 5144 5149 5152 5155 5158 5163 5166 5155 5153 5158 5163 5165 5167 5167 5167 5165 5161 5158 5152 5150 5144 5138 5135 5133 5134 5134 5136 5138 5138 5139 5140 5142 5144 5146 5147 5147 5148 5149 5149 5152 5151 5153 5155